Buenos Aires, Argentina

2:09 PM America en Septiembre 18, 2018 (GMT +0000)
Jorge Newbery Aeroparque

Tiempo Historia de SABE - Febrero, 2018

Change the Weather History Date:

Miércoles, Febrero 14, 2018

  Actual Average Record
Temperature  
Temperatura media 74 ° F -  
Temperatura máxima 81 ° F 80 ° F 89 ° F (2006)
Temperatura mínima 68 ° F 66 ° F 60 ° F (2004)
Cooling Degree Days 10    
Growing Degree Days 24 (Base 50)    
Moisture  
Punto de rocío 57 ° F    
Average Humidity 53    
Maximum Humidity 73    
Minimum Humidity 28    
Precipitación  
Precipitación 0.00 pul 0.15 pul - ()
Presión al nivel del mar  
Presión al nivel del mar 30.13 pul    
Viento  
Velocidad del viento 10 mph ()    
Velocidad máxima del viento 21 mph    
Max Gust Speed -    
Visibilidad 6.0 Millas    
Eventos      
Averages and records for this station are not official NWS values.
T = Trace of Precipitation, MM = Missing Value Source: Averaged Metar Reports

Daily Weather History Graph

Daily Weather History Graph

Search for Another Location

Airport or City:

Astronomía

Feb. 14, 2018 Salida Puesta
Hora real 6:27 AM -03 7:48 PM -03
Crepúsculo civil 6:00 AM -03 8:14 PM -03
Crepúsculo náutico 5:29 AM -03 8:45 PM -03
Crepúsculo astronómico 4:55 AM -03 9:18 PM -03
Luna 5:09 AM -03 (2/14) 7:11 PM -03 (2/14)
Horas de luz 14h 13m
Horas de luz
13h 20m
Creciente menguante, 2% of the Moon is Illuminated
Feb 14
Creciente menguante
Feb 15
Nueva
Feb 23
Cuarto creciente
Mar 1
Luna llena
Mar 9
Cuarto menguante

Hourly Weather History & Observations

Hora (-03) Temp. Índice de calor Punto de rocío Humedad Presión Visibilidad Wind Dir Velocidad del viento Velocidad de ráfagas Precip Eventos Condiciones
12:00 AM 72 ° F - 60 ° F 56% 30.17 pul 6 mi ENE 10.4 mph - -  
12:00 AM 73.4 ° F - 59.0 ° F 61% 30.15 pul - ENE 10.4 mph - N/A   Despejado
1:00 AM 71.6 ° F - 62.6 ° F 73% 30.15 pul - ENE 12.7 mph - N/A   Despejado
2:00 AM 71.6 ° F - 59.0 ° F 64% 30.15 pul - ENE 9.2 mph - N/A   Despejado
3:00 AM 70 ° F - 58 ° F 58% 30.15 pul 6 mi NE 6.9 mph - -  
3:00 AM 71.6 ° F - 57.2 ° F 60% 30.12 pul - ENE 6.9 mph - N/A   Despejado
4:00 AM 71.6 ° F - 57.2 ° F 60% 30.12 pul - ENE 5.8 mph - N/A   Despejado
5:00 AM 71.6 ° F - 55.4 ° F 57% 30.12 pul - NE 5.8 mph - N/A   Despejado
6:00 AM 70 ° F - 55 ° F 49% 30.17 pul 6 mi Norte 9.2 mph - -   Despejado
6:00 AM 71.6 ° F - 51.8 ° F 50% 30.15 pul - Norte 10.4 mph - N/A   Despejado
7:00 AM 69.8 ° F - 55.4 ° F 60% 30.15 pul - Norte 10.4 mph - N/A   Despejado
8:00 AM 71.6 ° F - 57.2 ° F 60% 30.18 pul - Norte 12.7 mph - N/A   Despejado
9:00 AM 72 ° F - 59 ° F 54% 30.20 pul 6 mi Norte 13.8 mph - -   Despejado
9:00 AM 71.6 ° F - 59.0 ° F 64% 30.18 pul - NNO 13.8 mph - N/A   Despejado
10:00 AM 73.4 ° F - 59.0 ° F 61% 30.18 pul - Norte 11.5 mph - N/A   Despejado
11:00 AM 75.2 ° F - 59.0 ° F 57% 30.18 pul - NNO 9.2 mph - N/A   Despejado
12:00 PM 77 ° F - 56 ° F 39% 30.18 pul 6 mi Norte 9.2 mph - -   Despejado
12:00 PM 77.0 ° F - 55.4 ° F 47% 30.15 pul - Norte 10.4 mph - N/A   Despejado
1:00 PM 78.8 ° F - 57.2 ° F 47% 30.15 pul - Norte 9.2 mph - N/A   Despejado
2:00 PM 80.6 ° F - 48.2 ° F 32% 30.12 pul - NNE 6.9 mph - N/A   Despejado
3:00 PM 81 ° F - 54 ° F 28% 30.13 pul 6 mi ENE 5.8 mph - -  
3:00 PM 80.6 ° F - 50.0 ° F 34% 30.12 pul - NE 5.8 mph - N/A   Despejado
4:00 PM 82.4 ° F - 48.2 ° F 30% 30.09 pul - Este 8.1 mph - N/A   Despejado
5:00 PM 80.6 ° F 80.5 ° F 55.4 ° F 42% 30.06 pul - Este 11.5 mph - N/A   Despejado
6:00 PM 79 ° F - 55 ° F 33% 30.08 pul 6 mi Este 16.1 mph - -  
6:00 PM 78.8 ° F - 55.4 ° F 44% 30.06 pul - Este 15.0 mph - N/A   Despejado
7:00 PM 78.8 ° F - 59.0 ° F 51% 30.06 pul - ESE 13.8 mph - N/A   Despejado
8:00 PM 77.0 ° F - 62.6 ° F 61% 30.06 pul - ESE 17.3 mph - N/A   Despejado
9:00 PM 76 ° F - 65 ° F 60% 30.08 pul 6 mi ESE 20.7 mph - -  
9:00 PM 77.0 ° F - 64.4 ° F 65% 30.06 pul - ESE 19.6 mph - N/A   Despejado
10:00 PM 77.0 ° F - 66.2 ° F 69% 30.09 pul - Este 18.4 mph - N/A   Despejado
11:00 PM 78.8 ° F - 60.8 ° F 54% 30.06 pul - Este 13.8 mph - N/A   Despejado